Tracking 19634 objects as of 22-May-2019
HD Live streaming from Space Station
objects crossing your sky now

FLOCK 1C 8

Track FLOCK 1C 8 now!
10-day predictions
FLOCK 1C 8 is classified as:


NORAD ID: 40040
Int'l Code: 2014-033AG
Perigee: 589.7 km
Apogee: 609.1 km
Inclination: 97.9 °
Period: 96.5 minutes
Semi major axis: 6970 km
RCS: Unknown
Launch date: June 19, 2014
Source: United States (US)
Launch site: Orenburg, Russia (OREN)
aabbcc
Your satellite tracking list
Your tracking list is empty




NASA's NSSDC Master Catalog

Two Line Element Set (TLE):
1 40040U 14033AG  19142.33755026  .00000490  00000-0  54290-4 0  9994
2 40040  97.9433  70.9645 0013929 114.0071 246.2607 14.91808601267587
Source of the keplerian elements: AFSPC